Weather Roundup
Issued by NWS Springfield, MO

Current Version | Previous Version | Text Only | Print | Product List | Glossary On
Versions: 1 2 3 4 5 6 7 8 9 10 11 12 13 14 15 16 17 18 19 20 21 22 23 24 25 26 27 28 29 30 31 32 33 34 35 36 37 38 39 40 41 42 43 44 45 46 47 48 49 50
000
NZUS99 KSGF 232007
HRRSGF

HOURLY WEATHER
NATIONAL WEATHER SERVICE SPRINGFIELD MO
300 PM CDT WED JUL 23 2014

......SGF CWA......

CITY           SKY/WX    TMP DP  RH WIND       PRES   REMARKS
SPRINGFIELD    MOSUNNY   91  74  57 N21G28    30.05F HX 100
JOPLIN         CLOUDY    79  70  74 NW12      30.12F
WEST PLAINS    PTSUNNY   79  64  60 CALM      30.02F
ROLLA          MOSUNNY   89  66  46 N12       30.05F HX  91
OSAGE BEACH    SUNNY     90  68  48 NW10      30.06S HX  93
BRANSON        PTSUNNY   95  73  49 N21G29    30.02  HX 105

......SURROUNDING SGF CWA......

CITY           SKY/WX    TMP DP  RH WIND       PRES   REMARKS
CHANUTE        CLOUDY    84  74  71 E7        30.12S HX  91
PARSONS        CLOUDY    75  70  84 CALM      30.14R
COFFEYVILLE    LGT RAIN  72  70  93 S7        30.10F
EMPORIA        CLOUDY    85  66  53 NE6       30.16R
GROVE OK       LGT RAIN  72  72 100 N8        30.13F
ROGERS AR      CLOUDY    73  64  73 NW17G23   30.11F
SILOAM SPRINGS CLOUDY    70  61  73 N20G29    30.12F
HARRISON AR    MOSUNNY   93  75  55 N15G21    30.00F HX 104
NEAR YELLVILLE PTSUNNY   75  64  69 E14G30    29.99R THUNDER

......KANSAS AND MISSOURI......

CITY           SKY/WX    TMP DP  RH WIND       PRES   REMARKS
KANSAS CTY INT PTSUNNY   85  66  53 NE12      30.14F
DOWNTOWN KC    SUNNY     88  65  46 N14       30.12F HX  90
COLUMBIA       MOSUNNY   88  66  48 N16G23    30.10F HX  90
SEDALIA        MOSUNNY   87  68  52 N14       30.12F HX  90
ST JOSEPH      SUNNY     85  66  53 NE9G17    30.15F
ST LOUIS       PTSUNNY   83  68  60 N14       30.07S
SPIRIT OF STL  PTSUNNY   85  69  58 NE13G22   30.06F
KIRKSVILLE     SUNNY     84  63  49 NE12      30.15F
WICHITA        PTSUNNY   84  67  56 N7        30.17S
TOPEKA         SUNNY     91  64  40 NE12G17   30.14S HX  92
OLATHE         SUNNY     89  62  40 NE13      30.13F

......TENNESSEE......

CITY           SKY/WX    TMP DP  RH WIND       PRES   REMARKS
MEMPHIS        MOSUNNY   91  73  55 CALM      30.01F HX  99
NASHVILLE      LGT RAIN  81  75  82 SW3       30.00F

......ARKANSAS.......

CITY           SKY/WX    TMP DP  RH WIND       PRES   REMARKS
FAYETTEVILLE   LGT RAIN  72  70  93 NW22G32   30.09F
FT SMITH       HVY RAIN  73  70  90 N20G46    30.02R VSB 3/4
LITTLE ROCK    PTSUNNY   91  74  57 S12       29.95F HX 100

......OKLAHOMA.......

CITY           SKY/WX    TMP DP  RH WIND       PRES   REMARKS
TULSA          TSTM      74  68  81 E8        30.13R
PONCA CITY     CLOUDY    81  72  74 SE6       30.11F
MCALESTER      PTSUNNY   92  76  59 NW9       30.07F HX 104
OKLAHOMA CITY  PTSUNNY   98  71  41 VRB3      30.10F HX 106

......IOWA............

CITY           SKY/WX    TMP DP  RH WIND       PRES   REMARKS
DES MOINES     MOSUNNY   84  58  40 NE12      30.17F
QUAD CITIES    MOSUNNY   80  55  42 N13       30.16F

......ILLINOIS........

CITY           SKY/WX    TMP DP  RH WIND       PRES   REMARKS
QUINCY         MOSUNNY   79  65  62 NE16      30.13S
CHICAGO        MOSUNNY   74  45  35 NE22G29   30.15S




USA.gov is the U.S. government's official web portal to all federal, state and local government web resources and services.